Aérodrome :
LOGIN :

S'inscrire | Disclaimer

   EN    FR    IT 

 










Légende :    VFR   VFR Marginal   IFR   IFR Intensif   IFR Très Intensif
Visi : 
Plafond : 
>= 8 km
>= 3000ft
5 à 8 km
1000 à 3000 ft
1500m à 5 km
500 à 1000 ft
800 à 1500m
200 à 500 ft
< 800m
< 200 ft
Symboles :   Orages  Brouillard  Fortes neiges  Fortes précipitations  Vent > 20 kt
SIGMETs :   Divers  Orages  Givrage  Turbulence  Onde Orograph.  Cendres Volcan.






- Altitude de l'aérodrome : 401 ft
- Code IATA : LEQ


EGHC - Land's End

DERNIER METAR :
  • 191050Z 13016KT 9999 FEW015 11/05 Q1020

METARs EXPIRÉS :
  • 191020Z 13015KT 9999 FEW018 10/05 Q1020
  • 190950Z 13013KT 9999 FEW015 10/06 Q1020
  • 190920Z 12013KT 9999 FEW015 10/06 Q1020
  • 190850Z 13013KT 9999 FEW025 09/06 Q1020
  • 190820Z 13013KT 9999 FEW018 09/05 Q1020

TAF TAF EGHC
Valide du 19 à 09h jusqu'au 19 à 18h UTC


190805Z 1909/1918 13010KT 9999 FEW030



MET'MAP, la Météo Aéronautique d'un coup d'oeil ! - Copyright ORBIFLY Décembre 2007 - Disclaimer

ORBIFLY MET'MAP TEAM :

Programmation & Développement : Alexandra Zaïnal
Sur une idée originale de : Baudouin d'Aumeries
Assistance à la programmation : Marc-Olivier Méhu
Soutien technique & logistique : Manuel Goepfert

Contact : metmap@orbifly.com




SOURCES & CREDITS :

   NOAA